EN

Hourly Weather Bolshoe Kachino

Today, 31 October, Saturday

Time Temperature Precipitation Wind Pressure Humidity
00:00 0°C° 0 mm 3 mps 752 mmHg 84%
01:00 -1°C° 0 mm 3 mps 752 mmHg 86%
02:00 -1°C° 0 mm 3 mps 752 mmHg 86%
03:00 -1°C° 0 mm 3 mps 751 mmHg 87%
04:00 -1°C° 0 mm 3 mps 751 mmHg 88%
05:00 -1°C° 0 mm 3 mps 751 mmHg 87%
06:00 -1°C° 0 mm 3 mps 751 mmHg 87%
07:00 -1°C° 0 mm 3 mps 750 mmHg 86%
08:00 0°C° 0 mm 3 mps 750 mmHg 82%
09:00 +1°C° 0 mm 3 mps 750 mmHg 79%
10:00 0°C° 0 mm 4 mps 750 mmHg 75%
11:00 0°C° 0.1 mm 4 mps 749 mmHg 77%
12:00 0°C° 0.1 mm 4 mps 749 mmHg 79%
13:00 0°C° 0.1 mm 4 mps 749 mmHg 81%
14:00 0°C° 0.1 mm 4 mps 749 mmHg 85%
15:00 0°C° 0.1 mm 4 mps 749 mmHg 88%
16:00 0°C° 0.1 mm 4 mps 749 mmHg 92%
17:00 0°C° 0.2 mm 4 mps 748 mmHg 92%
18:00 +1°C° 0.2 mm 3 mps 748 mmHg 92%
19:00 +1°C° 0.2 mm 3 mps 748 mmHg 93%
20:00 +1°C° 0.5 mm 3 mps 748 mmHg 93%
21:00 +1°C° 0.5 mm 3 mps 748 mmHg 94%
22:00 +1°C° 0.5 mm 3 mps 747 mmHg 94%
23:00 +1°C° 0.4 mm 3 mps 747 mmHg 95%

Tomorrow, 1 November, Sunday

Time Temperature Precipitation Wind Pressure Humidity
00:00 +1°C° 0.4 mm 3 mps 747 mmHg 96%
01:00 +1°C° 0.4 mm 3 mps 747 mmHg 97%
02:00 +1°C° 0.3 mm 3 mps 747 mmHg 97%
03:00 +2°C° 0.3 mm 2 mps 748 mmHg 98%
04:00 +2°C° 0.3 mm 2 mps 748 mmHg 98%
05:00 +2°C° 0.1 mm 2 mps 748 mmHg 97%
06:00 +1°C° 0.1 mm 3 mps 748 mmHg 96%
07:00 +1°C° 0.1 mm 3 mps 748 mmHg 95%
08:00 +1°C° 0 mm 3 mps 749 mmHg 91%
09:00 +1°C° 0 mm 4 mps 750 mmHg 87%
10:00 +1°C° 0 mm 4 mps 750 mmHg 84%
11:00 +1°C° 0 mm 4 mps 751 mmHg 81%
12:00 +1°C° 0 mm 4 mps 751 mmHg 79%
13:00 +1°C° 0 mm 4 mps 752 mmHg 76%
14:00 +1°C° 0 mm 3 mps 752 mmHg 77%
15:00 0°C° 0 mm 3 mps 752 mmHg 78%
16:00 0°C° 0 mm 3 mps 752 mmHg 78%
17:00 -1°C° 0 mm 2 mps 753 mmHg 81%
18:00 -2°C° 0 mm 2 mps 753 mmHg 84%
19:00 -1°C° 0 mm 1 mps 753 mmHg 87%
20:00 -1°C° 0 mm 1 mps 753 mmHg 87%
21:00 -1°C° 0 mm 1 mps 753 mmHg 88%
22:00 -1°C° 0 mm 1 mps 754 mmHg 89%
23:00 -1°C° 0 mm 1 mps 753 mmHg 88%

Day after tomorrow, 2 November, Monday

Time Temperature Precipitation Wind Pressure Humidity
00:00 -1°C° 0 mm 1 mps 753 mmHg 87%
01:00 -1°C° 0 mm 1 mps 753 mmHg 87%
02:00 -1°C° 0 mm 1 mps 753 mmHg 86%
03:00 -1°C° 0 mm 1 mps 753 mmHg 86%
04:00 -1°C° 0 mm 1 mps 753 mmHg 85%
05:00 -1°C° 0 mm 1 mps 753 mmHg 85%
06:00 -3°C° 0 mm 2 mps 753 mmHg 85%
07:00 -3°C° 0 mm 2 mps 753 mmHg 85%
08:00 -3°C° 0 mm 2 mps 753 mmHg 82%
09:00 -2°C° 0 mm 2 mps 753 mmHg 80%
10:00 -2°C° 0 mm 2 mps 753 mmHg 77%
11:00 -1°C° 0 mm 2 mps 754 mmHg 74%
12:00 -1°C° 0 mm 2 mps 754 mmHg 71%
13:00 -1°C° 0 mm 2 mps 754 mmHg 68%
14:00 -1°C° 0 mm 2 mps 754 mmHg 70%
15:00 -1°C° 0 mm 2 mps 754 mmHg 71%
16:00 -2°C° 0 mm 2 mps 755 mmHg 73%
17:00 -2°C° 0 mm 2 mps 755 mmHg 75%
18:00 -1°C° 0 mm 1 mps 755 mmHg 78%
19:00 -1°C° 0 mm 1 mps 755 mmHg 81%
20:00 -2°C° 0 mm 1 mps 756 mmHg 81%
21:00 -2°C° 0 mm 1 mps 756 mmHg 81%
22:00 -2°C° 0 mm 1 mps 756 mmHg 80%
23:00 -2°C° 0 mm 1 mps 756 mmHg 80%

3 November, Tuesday

Time Temperature Precipitation Wind Pressure Humidity
00:00 -2°C° 0 mm 1 mps 756 mmHg 80%
01:00 -3°C° 0 mm 0 mps 756 mmHg 80%
02:00 -2°C° 0 mm 1 mps 757 mmHg 79%
03:00 -2°C° 0 mm 1 mps 757 mmHg 79%
04:00 -2°C° 0 mm 1 mps 757 mmHg 78%
05:00 -2°C° 0 mm 1 mps 758 mmHg 78%
06:00 -2°C° 0 mm 1 mps 758 mmHg 77%
07:00 -2°C° 0 mm 1 mps 758 mmHg 77%
08:00 -2°C° 0 mm 0 mps 758 mmHg 73%
09:00 -1°C° 0 mm 0 mps 758 mmHg 69%
10:00 -1°C° 0 mm 0 mps 758 mmHg 65%
11:00 0°C° 0 mm 0 mps 758 mmHg 62%
12:00 +1°C° 0 mm 0 mps 758 mmHg 59%
13:00 +1°C° 0 mm 0 mps 759 mmHg 57%
14:00 +1°C° 0 mm 0 mps 759 mmHg 60%
15:00 0°C° 0 mm 0 mps 759 mmHg 63%
16:00 0°C° 0 mm 0 mps 759 mmHg 66%
17:00 -1°C° 0 mm 0 mps 759 mmHg 68%
18:00 0°C° 0 mm 1 mps 759 mmHg 69%
19:00 0°C° 0 mm 1 mps 759 mmHg 70%
20:00 -1°C° 0 mm 1 mps 759 mmHg 70%
21:00 -1°C° 0 mm 1 mps 759 mmHg 69%
22:00 -1°C° 0 mm 1 mps 758 mmHg 69%
23:00 -1°C° 0 mm 1 mps 758 mmHg 69%

4 November, Wednesday

Time Temperature Precipitation Wind Pressure Humidity
00:00 -1°C° 0 mm 1 mps 758 mmHg 69%
01:00 -3°C° 0 mm 2 mps 758 mmHg 69%
02:00 -3°C° 0 mm 2 mps 758 mmHg 69%
03:00 -3°C° 0 mm 2 mps 758 mmHg 70%
04:00 -3°C° 0 mm 2 mps 758 mmHg 70%
05:00 -3°C° 0 mm 2 mps 758 mmHg 71%
06:00 -3°C° 0 mm 2 mps 758 mmHg 73%
07:00 -3°C° 0 mm 2 mps 758 mmHg 74%
08:00 -2°C° 0 mm 3 mps 757 mmHg 71%
09:00 -1°C° 0 mm 3 mps 757 mmHg 69%
10:00 0°C° 0 mm 3 mps 757 mmHg 66%
11:00 0°C° 0 mm 3 mps 757 mmHg 64%
12:00 +1°C° 0 mm 3 mps 757 mmHg 62%
13:00 +1°C° 0 mm 4 mps 757 mmHg 60%
14:00 +1°C° 0 mm 3 mps 757 mmHg 64%
15:00 +1°C° 0 mm 3 mps 757 mmHg 67%
16:00 +1°C° 0 mm 2 mps 757 mmHg 71%
17:00 +1°C° 0 mm 2 mps 757 mmHg 73%
18:00 -1°C° 0 mm 3 mps 757 mmHg 75%
19:00 -1°C° 0 mm 3 mps 757 mmHg 77%
20:00 -1°C° 0 mm 2 mps 756 mmHg 77%
21:00 -1°C° 0 mm 2 mps 756 mmHg 77%
22:00 -1°C° 0 mm 2 mps 756 mmHg 77%
23:00 -1°C° 0 mm 2 mps 756 mmHg 77%

5 November, Thursday

Time Temperature Precipitation Wind Pressure Humidity
00:00 -1°C° 0 mm 2 mps 756 mmHg 77%
01:00 -1°C° 0 mm 2 mps 756 mmHg 77%
02:00 -1°C° 0 mm 2 mps 756 mmHg 77%
03:00 -1°C° 0 mm 2 mps 756 mmHg 77%
04:00 -1°C° 0 mm 2 mps 756 mmHg 77%
05:00 -2°C° 0 mm 2 mps 756 mmHg 78%
06:00 -2°C° 0 mm 2 mps 756 mmHg 78%
07:00 -2°C° 0 mm 2 mps 755 mmHg 78%
08:00 -1°C° 0 mm 2 mps 755 mmHg 76%
09:00 -1°C° 0 mm 2 mps 755 mmHg 73%
10:00 +1°C° 0 mm 2 mps 755 mmHg 71%
11:00 +2°C° 0 mm 2 mps 755 mmHg 69%
12:00 +2°C° 0 mm 2 mps 754 mmHg 67%
13:00 +3°C° 0 mm 2 mps 754 mmHg 66%
14:00 +2°C° 0 mm 2 mps 754 mmHg 69%
15:00 +2°C° 0 mm 2 mps 753 mmHg 71%
16:00 +1°C° 0 mm 2 mps 753 mmHg 74%
17:00 +1°C° 0 mm 2 mps 753 mmHg 74%
18:00 -1°C° 0 mm 2 mps 752 mmHg 74%
19:00 -1°C° 0 mm 2 mps 752 mmHg 74%
20:00 -1°C° 0 mm 2 mps 751 mmHg 73%
21:00 -1°C° 0 mm 2 mps 751 mmHg 73%
22:00 -1°C° 0 mm 2 mps 750 mmHg 72%
23:00 -1°C° 0.4 mm 2 mps 750 mmHg 78%
Show more